Details From KASE - Aspen Pitkin Co Sardy Fld
To KTEX - Telluride Rgnl
Flight Number -
Tags generated
Created
Modified
Stats Distance 91 nm / 168 km
Max Altitude 10,500 ft / 3,200 m
Waypoints 3
Social Downloads 6
Likes 0
Share VATSIM

Download

Looking for another format? Having issues loading an existing format? Contact us
Advertisement - Login to hide

Notes

Basic altitude profile: - Ascent Rate: 2000ft/min - Ascent Speed: 250kts - Cruise Altitude: 17000ft - Cruise Speed: 280kts - Descent Rate: 1300ft/min - Descent Speed: 180kts

Route

KASE MEYRS KTEX

ID Type Via Altitude Latitude Longitude Leg Dist Tot Dist Heading (true) Name
O KASE APT - 0 ft / 0 m 39.22316˚ -106.86885˚ - 0 nm - Aspen Pitkin Co Sardy Fld
MEYRS FIX - 10,500 ft / 3,200 m 38.47966˚ -107.46276˚ 52 nm 52 nm 212° / 212° -
O KTEX APT - 0 ft / 0 m 37.95381˚ -107.90874˚ 37 nm 90 nm 214° / 214° Telluride Rgnl

Altitude Profile

Advertisement - Login to hide

KASE

Details ICAO KASE (ASE)
Name Aspen Pitkin Co Sardy Fld
Region United States
Timezone America/Denver (UTC-6.0)
Stats Elevation 7,820 ft / 2,384 m (AMSL)
Location 39.223164° -106.868847°
Runways 1
Magnetic Variation 9.051° E

METAR

KASE 231653Z 18009G20KT 10SM FEW100 19/M06 A3012 RMK AO2 SLP102 T01891061

Decode

TAF

TAF KASE 231126Z 2312/2412 VRB04KT P6SM FEW080 SCT250 FM231600 20012G20KT P6SM BKN070 BKN150 FM232000 26011G20KT P6SM BKN090 BKN140 FM240200 20006KT P6SM FEW110 FEW250

Decode

Departure Runways

ID Width Length Bearing (true) Bearing (mag) Surface Threshold Offset Overrun Length
15 100 ft / 30 m 7,011 ft / 2,137 m 159.71° 150.66° Asphalt 0 ft / 0 m 499 ft / 152 m
33 100 ft / 30 m 7,011 ft / 2,137 m 339.71° 330.66° Asphalt 0 ft / 0 m 0 ft / 0 m

KTEX

Details ICAO KTEX (TEX)
Name Telluride Rgnl
Region United States
Timezone America/Denver (UTC-6.0)
Stats Elevation 9,078 ft / 2,767 m (AMSL)
Location 37.953812° -107.908742°
Runways 1
Magnetic Variation 9.376° E

METAR

KTEX 231735Z AUTO 16016G24KT 10SM BKN080 BKN120 14/M06 A3025 RMK AO2 T01401059

Decode

TAF

TAF KTEX 231126Z 2312/2412 14007KT P6SM SCT080 SCT200 FM231700 17011G18KT P6SM FEW070 SCT250 FM232100 22011G20KT P6SM FEW090 SCT150 FM240300 12004KT P6SM FEW100 FEW250

Decode

Destination Runways

ID Width Length Bearing (true) Bearing (mag) Surface Threshold Offset Overrun Length
09 98 ft / 30 m 7,095 ft / 2,163 m 104.96° 95.58° Asphalt 200 ft / 61 m 400 ft / 122 m
27 98 ft / 30 m 7,095 ft / 2,163 m 284.98° 275.60° Asphalt 200 ft / 61 m 400 ft / 122 m

Approach Navaids

Runway Type Ident Frequency Range Bearing (true) Bearing (mag) Slope Elevation
09 Localiser ITEX 109.30 MHz 18 nm / 33 km 102.00° 92.62° - 9,078 ft / 2,767 m (AMSL)
09 DME ITEX 109.30 MHz 18 nm / 33 km - - - 9,078 ft / 2,767 m (AMSL)

Popular Alternatives